[[{"header":{"parameterUnit":"m.s-1","parameterCategory":1,"la1":30.2991,"la2":30.254,"lo1":-89.0895,"lo2":-89.0444,"dy":0.0017,"dx":0.0017,"nx":28,"ny":28,"refTime":"2025-09-09T09:00:00:Z","depth":0,"parameterNumber":2,"parameterNumberName":"U-component_of_WINDS"},"data":[0,0,0,0,0,0,0,0,0,0,0,0,0,0,0,0,0,0,0,0,0,0,0,0,0,0,0,0,0,0,0,0,0,0,0,0,0,0,0,0,0,0,0,0,0,0,0,0,0,0,0,0,0,0,0,0,0,0,-5.1925,-5.1925,0,-5.1918,-5.1918,-5.1918,-5.1794,-5.1791,-5.1788,-5.1785,-5.178,-5.1783,-5.1786,0,0,0,0,0,0,0,0,0,0,0,0,0,-5.1835,-5.1838,-5.1925,-5.1925,-5.1925,-5.1918,-5.1918,-5.1918,-5.1795,-5.1791,-5.1787,-5.1783,-5.1779,-5.1782,-5.1786,0,0,0,0,0,0,0,0,0,0,0,0,0,-5.1856,-5.1838,-5.1925,-5.1863,-5.1857,-5.1918,-5.1918,-5.1918,-5.1796,-5.1791,-5.1786,-5.1782,-5.1778,-5.1782,-5.1786,-5.1908,0,0,-5.1799,-5.1801,0,0,0,0,0,0,0,0,-5.1855,-5.186,-5.1872,-5.1867,-5.1861,-5.1852,-5.1884,-5.1915,-5.1797,-5.1819,-5.1785,-5.1779,-5.1808,-5.181,-5.1819,-5.1908,-5.1907,-5.18,-5.1802,-5.1804,-5.1805,0,0,0,0,0,0,0,-5.1854,-5.1859,-5.1922,-5.1872,-5.1866,-5.1836,-5.1834,-5.189,-5.184,-5.1817,-5.1808,-5.1808,-5.1804,-5.1815,-5.1818,-5.1907,-5.18,-5.1803,-5.1806,-5.1808,-5.2098,-5.2103,0,0,0,0,0,0,-5.1861,-5.1859,-5.1923,-5.1922,-5.1846,-5.1842,-5.1839,-5.186,-5.1839,-5.1832,-5.1812,-5.1803,-5.181,-5.1813,-5.1817,-5.1959,-5.1804,-5.1808,-5.181,-5.2093,-5.2099,-5.2105,0,0,0,0,0,0,-5.1859,-5.1867,-5.1923,-5.1888,-5.1893,-5.1848,-5.1873,-5.1862,-5.1873,-5.1836,-5.1827,-5.1832,-5.1806,-5.1811,-5.1886,-5.1957,-5.181,-5.1814,-5.2087,-5.2095,-5.2102,-5.2243,0,0,0,0,0,0,-5.1857,-5.1868,-5.1912,-5.189,-5.1895,-5.1992,-5.1877,-5.1865,-5.188,-5.1867,-5.1852,-5.1845,-5.1803,-5.1881,-5.1891,-5.196,-5.1817,-5.208,-5.209,-5.2099,-5.2232,-5.2255,-5.2275,0,0,0,0,0,-5.1854,-5.1953,-5.1915,-5.1924,-5.195,-5.1996,-5.1999,-5.1947,-5.1886,-5.1932,-5.1909,-5.1846,-5.1948,-5.189,-5.19,-5.1972,-5.2075,-5.2087,-5.2099,-5.2223,-5.2251,-5.2274,0,0,0,0,0,0,-5.1984,-5.1948,-5.1906,-5.2,-5.2002,-5.1975,-5.203,-5.1978,-5.1998,-5.1985,-5.1921,-5.1919,-5.2005,-5.1996,-5.1931,-5.2089,-5.2001,-5.2015,-5.2092,-5.2118,-5.2139,-5.2139,-5.1821,0,0,0,0,0,-5.2024,-5.2063,-5.203,-5.2116,-5.2119,-5.2075,-5.2093,-5.2054,-5.2053,-5.2053,-5.2036,-5.2039,-5.2071,-5.2094,-5.2122,-5.2231,-5.2227,-5.2285,-5.2307,-5.2324,-5.2337,-5.2396,-5.2422,-5.2143,-5.2143,-5.2142,0,0,-5.2106,-5.2091,-5.212,-5.2142,-5.2139,-5.2182,-5.2076,-5.2126,-5.2159,-5.2061,-5.2131,-5.2119,-5.2118,-5.2211,-5.2251,-5.2206,-5.2414,-5.2339,-5.2353,-5.2357,-5.2411,-5.2437,-5.2461,-5.2151,-5.2149,-5.2148,0,0,-5.2278,-5.227,-5.2342,-5.2341,-5.2338,-5.2308,-5.2326,-5.2307,-5.2295,-5.2364,-5.2293,-5.2331,-5.2388,-5.2391,-5.24,-5.2576,-5.252,-5.2588,-5.2698,-5.2756,-5.2778,-5.2797,-5.2861,-5.2885,-5.2601,-5.2601,-5.2601,0,-5.238,-5.2442,-5.2385,-5.244,-5.2453,-5.2367,-5.244,-5.2443,-5.2449,-5.246,-5.241,-5.2481,-5.2475,-5.2568,-5.2611,-5.2621,-5.2641,-5.2588,-5.2779,-5.2798,-5.2815,-5.2875,-5.29,-5.2609,-5.2608,-5.2607,-5.2607,0,-5.2569,-5.2613,-5.2672,-5.268,-5.2699,-5.2763,-5.2718,-5.2744,-5.2704,-5.2681,-5.2754,-5.2743,-5.2768,-5.2788,-5.2749,-5.2877,-5.2849,-5.279,-5.27,-5.2851,-5.2907,-5.2929,-5.2621,-5.2618,-5.2616,-5.2614,0,0,-5.282,-5.2798,-5.2821,-5.2824,-5.2815,-5.2849,-5.2911,-5.2935,-5.296,-5.2968,-5.3019,-5.3071,-5.3017,-5.3027,-5.2988,-5.3039,-5.3181,-5.2974,-5.2973,-5.3013,-5.3324,-5.3368,-5.3396,-5.3145,-5.3149,-5.3152,-5.3324,0,-5.2987,-5.3089,-5.3041,-5.3149,-5.319,-5.3111,-5.3164,-5.3166,-5.3146,-5.318,-5.3158,-5.3196,-5.3121,-5.3128,-5.3175,-5.3154,-5.3243,-5.3141,-5.3192,-5.3195,-5.3195,-5.3425,-5.3471,-5.3634,-5.3345,-5.3349,-5.3352,0,-5.3193,-5.3211,-5.3323,-5.3309,-5.3324,-5.3373,-5.3393,-5.3425,-5.3426,-5.3409,-5.3422,-5.3372,-5.3433,-5.3345,-5.3429,-5.3361,-5.3379,-5.3373,-5.3378,-5.3381,-5.3282,-5.3434,-5.3684,-5.3709,-5.3385,-5.3382,-5.338,0,-5.3367,-5.3418,-5.3492,-5.3498,-5.3483,-5.3519,-5.3515,-5.3511,-5.353,-5.3548,-5.356,-5.3585,-5.3599,-5.3621,-5.358,-5.3519,-5.367,-5.3578,-5.3659,-5.366,-5.3693,-5.3692,-5.3951,-5.3706,-5.3706,-5.3705,-5.3705,0,-5.3557,-5.3629,-5.357,-5.3616,-5.3695,-5.364,-5.3721,-5.3708,-5.3706,-5.3749,-5.3682,-5.3725,-5.3668,-5.3705,-5.3674,-5.375,-5.3756,-5.3745,-5.3736,-5.3751,-5.3753,-5.3762,-5.375,-5.3711,-5.371,-5.3709,-5.3708,0,-5.3763,-5.3726,-5.3802,-5.3782,-5.3779,-5.3839,-5.3822,-5.3865,-5.3842,-5.3897,-5.3907,-5.3871,-5.3912,-5.3874,-5.3912,-5.3892,-5.3993,-5.3967,-5.3992,-5.3985,-5.4068,-5.4062,-5.4342,-5.4377,-5.411,-5.4113,-5.4115,0,-5.3887,-5.3941,-5.3927,-5.3951,-5.3951,-5.399,-5.4009,-5.3958,-5.3981,-5.3988,-5.4031,-5.4066,-5.4091,-5.416,-5.4138,-5.4169,-5.4143,-5.424,-5.4147,-5.4162,-5.4146,-5.4143,-5.4149,-5.4259,-5.4262,-5.4264,-5.4267,0,-5.4111,-5.4091,-5.412,-5.4144,-5.4169,-5.4185,-5.4196,-5.422,-5.4168,-5.4198,-5.4239,-5.4258,-5.4299,-5.4335,-5.4359,-5.4356,-5.4304,-5.4296,-5.4317,-5.4332,-5.4345,-5.434,-5.4044,-5.429,-5.4287,-5.4286,-5.4284,-5.4283,-5.428,-5.4325,-5.4323,-5.4358,-5.4362,-5.4375,-5.4414,-5.4397,-5.4429,-5.4458,-5.4426,-5.4477,-5.4479,-5.4506,-5.451,-5.4549,-5.4509,-5.4538,-5.4546,-5.4554,-5.4567,-5.4339,-5.4554,-5.4553,-5.4552,-5.4552,-5.4551,0,-5.4501,-5.4496,-5.453,-5.4548,-5.4577,-5.4525,-5.4536,-5.4564,-5.4609,-5.4615,-5.4642,-5.469,-5.4726,-5.4708,-5.474,-5.4776,-5.4753,-5.4786,-5.4783,-5.4783,-5.46,-5.458,-5.4804,-5.4804,-5.4804,-5.4804,-5.4804,-5.4804,-5.4619,-5.4693,-5.4673,-5.4748,-5.4743,-5.4792,-5.4803,-5.4815,-5.482,-5.4877,-5.4906,-5.4894,-5.4892,-5.4923,-5.4954,-5.4948,-5.4963,-5.5005,-5.4991,-5.4821,-5.4796,-5.4772,-5.4752,-5.5009,-5.5009,-5.517,-5.5172,-5.5173]},{"header":{"parameterUnit":"m.s-1","parameterCategory":1,"la1":30.2991,"la2":30.254,"lo1":-89.0895,"lo2":-89.0444,"dy":0.0017,"dx":0.0017,"nx":28,"ny":28,"refTime":"2025-09-09T09:00:00:Z","depth":0,"parameterNumber":3,"parameterNumberName":"V-component_of_WINDS"},"data":[0,0,0,0,0,0,0,0,0,0,0,0,0,0,0,0,0,0,0,0,0,0,0,0,0,0,0,0,0,0,0,0,0,0,0,0,0,0,0,0,0,0,0,0,0,0,0,0,0,0,0,0,0,0,0,0,0,0,-0.2608,-0.2609,0,-0.276,-0.2762,-0.2764,-0.2768,-0.2767,-0.2765,-0.2763,-0.2922,-0.2928,-0.2934,0,0,0,0,0,0,0,0,0,0,0,0,0,-0.2322,-0.2327,-0.2608,-0.261,-0.2611,-0.276,-0.2762,-0.2764,-0.2769,-0.2766,-0.2764,-0.2762,-0.292,-0.2927,-0.2934,0,0,0,0,0,0,0,0,0,0,0,0,0,-0.2457,-0.2329,-0.2607,-0.2632,-0.2635,-0.2759,-0.2762,-0.2765,-0.2769,-0.2766,-0.2764,-0.2761,-0.2918,-0.2926,-0.2935,-0.3046,0,0,-0.2963,-0.2966,0,0,0,0,0,0,0,0,-0.245,-0.2468,-0.2626,-0.263,-0.2634,-0.2742,-0.272,-0.2859,-0.277,-0.2718,-0.2763,-0.276,-0.2865,-0.2878,-0.2913,-0.3054,-0.3061,-0.2963,-0.2969,-0.2973,-0.2975,0,0,0,0,0,0,0,-0.244,-0.2461,-0.2668,-0.2628,-0.2634,-0.2635,-0.2651,-0.2746,-0.2806,-0.2723,-0.2723,-0.2741,-0.2866,-0.2904,-0.2916,-0.3063,-0.2963,-0.2971,-0.2977,-0.298,-0.3302,-0.3305,0,0,0,0,0,0,-0.2426,-0.2454,-0.2663,-0.2673,-0.2533,-0.2643,-0.2661,-0.2711,-0.2804,-0.2816,-0.2743,-0.2741,-0.289,-0.2906,-0.2922,-0.3059,-0.2973,-0.2981,-0.2986,-0.3299,-0.3303,-0.3307,0,0,0,0,0,0,-0.242,-0.2445,-0.2657,-0.2563,-0.2591,-0.2651,-0.2707,-0.2715,-0.2753,-0.282,-0.2831,-0.2771,-0.2889,-0.2909,-0.3015,-0.3064,-0.2985,-0.2993,-0.3296,-0.33,-0.3305,-0.3333,0,0,0,0,0,0,-0.2411,-0.2442,-0.2485,-0.2564,-0.2595,-0.2747,-0.271,-0.272,-0.2768,-0.2766,-0.2849,-0.286,-0.2888,-0.3002,-0.3024,-0.3075,-0.3,-0.3291,-0.3298,-0.3303,-0.3328,-0.3338,-0.3346,0,0,0,0,0,-0.2401,-0.2487,-0.2487,-0.2512,-0.265,-0.275,-0.2768,-0.2798,-0.2772,-0.2815,-0.2858,-0.2857,-0.3054,-0.3012,-0.3038,-0.3092,-0.3289,-0.3296,-0.3303,-0.3323,-0.3336,-0.3346,0,0,0,0,0,0,-0.2414,-0.2498,-0.2499,-0.2613,-0.2674,-0.2751,-0.2807,-0.281,-0.2881,-0.2876,-0.2911,-0.293,-0.3035,-0.3074,-0.3025,-0.3204,-0.3169,-0.3181,-0.3176,-0.3188,-0.3197,-0.3186,-0.3008,0,0,0,0,0,-0.243,-0.2503,-0.2573,-0.2667,-0.2698,-0.2747,-0.2792,-0.2809,-0.2874,-0.2901,-0.2951,-0.3015,-0.3092,-0.3141,-0.3216,-0.3332,-0.3351,-0.3382,-0.3391,-0.3399,-0.341,-0.3474,-0.3489,-0.333,-0.333,-0.333,0,0,-0.2464,-0.2519,-0.2564,-0.2671,-0.2721,-0.2797,-0.2769,-0.2851,-0.2908,-0.2913,-0.3016,-0.3055,-0.3129,-0.324,-0.3292,-0.3276,-0.3457,-0.3408,-0.3413,-0.3421,-0.3483,-0.3498,-0.3512,-0.3335,-0.3334,-0.3333,0,0,-0.2565,-0.2614,-0.2698,-0.2747,-0.2822,-0.2853,-0.2873,-0.2949,-0.2975,-0.3078,-0.3084,-0.3152,-0.3283,-0.3335,-0.3378,-0.3497,-0.3499,-0.352,-0.357,-0.3632,-0.3645,-0.3656,-0.37,-0.3714,-0.353,-0.353,-0.353,0,-0.2599,-0.2713,-0.274,-0.2822,-0.287,-0.2876,-0.2961,-0.3008,-0.3103,-0.3136,-0.3116,-0.328,-0.333,-0.3454,-0.3482,-0.3517,-0.3541,-0.3512,-0.3641,-0.3652,-0.3663,-0.3705,-0.3721,-0.3532,-0.3532,-0.3532,-0.3532,0,-0.2751,-0.283,-0.2888,-0.2979,-0.3033,-0.3116,-0.3156,-0.3207,-0.3219,-0.3252,-0.3357,-0.3417,-0.3503,-0.3533,-0.3546,-0.3659,-0.3647,-0.3633,-0.3599,-0.368,-0.372,-0.3736,-0.3536,-0.3535,-0.3534,-0.3534,0,0,-0.2867,-0.297,-0.2991,-0.3032,-0.3114,-0.3176,-0.3259,-0.3342,-0.3385,-0.3449,-0.3521,-0.363,-0.3618,-0.3667,-0.3685,-0.374,-0.3831,-0.372,-0.3722,-0.374,-0.3959,-0.397,-0.3988,-0.3831,-0.3834,-0.3837,-0.3953,0,-0.2979,-0.3126,-0.3152,-0.3281,-0.3355,-0.336,-0.3433,-0.3491,-0.3524,-0.3591,-0.3628,-0.3705,-0.3682,-0.3712,-0.3766,-0.3808,-0.3876,-0.38,-0.3899,-0.3902,-0.3882,-0.4009,-0.4021,-0.4128,-0.3969,-0.3972,-0.3973,0,-0.3129,-0.3196,-0.3332,-0.3403,-0.3435,-0.3499,-0.3577,-0.3641,-0.3706,-0.3726,-0.378,-0.3792,-0.3879,-0.3838,-0.3958,-0.3906,-0.3947,-0.3973,-0.3978,-0.3991,-0.3944,-0.4026,-0.4163,-0.418,-0.3998,-0.3996,-0.3994,0,-0.3202,-0.3326,-0.3424,-0.3458,-0.3543,-0.3588,-0.3626,-0.3688,-0.3736,-0.3803,-0.3835,-0.3912,-0.3955,-0.4014,-0.4046,-0.4013,-0.4164,-0.4126,-0.4184,-0.4184,-0.4218,-0.4216,-0.4366,-0.4242,-0.4241,-0.4241,-0.4241,0,-0.3325,-0.3408,-0.3457,-0.3518,-0.3611,-0.3639,-0.3731,-0.3768,-0.3823,-0.3891,-0.39,-0.3963,-0.4001,-0.407,-0.4095,-0.4191,-0.421,-0.4229,-0.4235,-0.423,-0.4227,-0.4259,-0.4253,-0.4245,-0.4244,-0.4243,-0.4243,0,-0.3423,-0.3459,-0.3566,-0.3636,-0.3656,-0.3722,-0.3782,-0.3841,-0.3873,-0.3958,-0.398,-0.403,-0.4111,-0.4148,-0.4249,-0.4266,-0.4376,-0.4376,-0.4354,-0.4356,-0.4413,-0.4408,-0.4591,-0.4616,-0.4473,-0.4474,-0.4475,0,-0.35,-0.3564,-0.3641,-0.3686,-0.3725,-0.3798,-0.3846,-0.3876,-0.3926,-0.4004,-0.4054,-0.4135,-0.4202,-0.4331,-0.4377,-0.4454,-0.4457,-0.4516,-0.4469,-0.4461,-0.446,-0.4456,-0.4463,-0.4525,-0.4526,-0.4527,-0.4528,0,-0.3633,-0.3648,-0.3717,-0.3792,-0.3849,-0.391,-0.3969,-0.4006,-0.4045,-0.4101,-0.4183,-0.4235,-0.4337,-0.4417,-0.4497,-0.4536,-0.454,-0.4542,-0.456,-0.4556,-0.4541,-0.4551,-0.4379,-0.4539,-0.4538,-0.4537,-0.4536,-0.4536,-0.3725,-0.3782,-0.3844,-0.3921,-0.3968,-0.4023,-0.4081,-0.412,-0.4189,-0.4274,-0.4287,-0.4375,-0.4438,-0.4544,-0.4586,-0.4655,-0.4642,-0.4667,-0.4674,-0.4681,-0.4684,-0.4528,-0.467,-0.4669,-0.4669,-0.4669,-0.4669,0,-0.3859,-0.3899,-0.3969,-0.4051,-0.4111,-0.4107,-0.4172,-0.4223,-0.43,-0.4358,-0.4423,-0.4517,-0.4595,-0.4646,-0.4725,-0.477,-0.4774,-0.479,-0.4788,-0.4797,-0.4692,-0.4669,-0.4786,-0.4786,-0.4786,-0.4786,-0.4786,-0.4786,-0.3937,-0.4033,-0.4054,-0.4174,-0.4214,-0.4299,-0.4337,-0.4388,-0.4434,-0.4539,-0.4603,-0.4635,-0.469,-0.4773,-0.4844,-0.4857,-0.4886,-0.4903,-0.4916,-0.4817,-0.4805,-0.4793,-0.4772,-0.4909,-0.4909,-0.5016,-0.5017,-0.5018]}]]